* Astronomy

Members Login
Username 
 
Password 
    Remember Me  
Post Info TOPIC: Asteroid 2012 UB34


L

Posts: 131433
Date:
Asteroid 2012 UB34
Permalink  
 


Orbital elements:
2012 UB34                                                Earth MOID = 0.2864 AU
Epoch 2012 Sept. 30.0 TT = JDT 2456200.5                MPC
M   4.84340              (2000.0)            P               Q
n   0.22910000     Peri.  247.93073     +0.96121453     +0.10232458
a   2.6451643      Node   105.44583     -0.01601501     +0.94777068
e   0.5559067      Incl.   15.40942     -0.27533644     +0.30209339
P   4.30           H   20.3           G   0.15           U   8

MPEC 2012 - U58



__________________
Page 1 of 1  sorted by
 
Quick Reply

Please log in to post quick replies.



Create your own FREE Forum
Report Abuse
Powered by ActiveBoard